www.pogodaiklimat.ru

Погода и климат >> Архив погоды >> Бангладеш >> Патуакхали


ПОГОДА в Патуакхали

  • Прогноз погоды в Патуакхали
  • Монитор погоды в Патуакхали

АРХИВ ПОГОДЫ в Патуакхали

Время (UTC), дата Ветер
(напр.,м/с)
 
Видим.   Явления Облачность Т
(С)
Тd
(С)
f
(%)
Тe
(С)
Тes
(С)
Комфортность P
(гПа)
Po
(гПа)
Тmin
(С)
Tmax
(С)
R
(мм)
R24
(мм)
S
(см)
15 15.09 Ю 1 5000 м 6/4 540 м
[Sc diur, vesp]
+29.0 +28.0 94 +48 +48 опасность
перегрева
1006.6 1006.4
18 15.09 Ю 1 5000 м 5/4 540 м
[Sc diur, vesp As trans]
+28.4 +28.0 98 +47 +47 опасность
перегрева
1006.7 1006.5
00 16.09 штиль 0 4000 м {дождь} 5/4 540 м
[Sc diur, vesp Ac trans]
+27.8 +27.8 100 +45 +45 опасность
перегрева
1006.4 1006.2 1
03 16.09 Ю 1 6000 м 5/4 540 м
[Sc diur, vesp Ac trans]
+31.6 +27.0 77 +50 +56 опасность
перегрева
1007.3 1007.1 +27.4
06 16.09 штиль 0 6000 м 6/5 540 м
[Sc diur, vesp As trans]
+33.0 +28.0 75 +54 +65 опасность
перегрева
1006.6 1006.5
09 16.09 Ю 1 7000 м 5/5 540 м
[Sc diur, vesp]
+33.7 +29.0 77 +58 +63 опасность
перегрева
1003.5 1003.4
12 16.09 Ю 1 5000 м 8/5 540 м
[Sc diur, vesp As trans Ci fib]
+30.0 +27.0 84 +47 +47 опасность
перегрева
1003.6 1003.5 +34.3
15 16.09 штиль 0 5000 м 9/5 540 м
[Sc diur, vesp Ci fib]
+28.6 +28.0 97 +47 +47 опасность
перегрева
1006.4 1006.2
18 16.09 штиль 0 5000 м 3/0
[Ac trans]
+27.9 +27.0 95 +44 +44 опасность
перегрева
1006.8 1006.6
21 16.09 штиль 0 5000 м 3/0
[Ac trans]
+27.2 +27.0 99 +43 +43 опасность
перегрева
1006.8 1006.6
00 17.09 штиль 0 5000 м 3/0
[Ac lent]
+26.8 +26.8 100 +42 +42 опасность
перегрева
1006.7 1006.5
03 17.09 Ю 1 6000 м 4/4 540 м
[Sc diur, vesp]
+30.9 +27.0 80 +49 +56 опасность
перегрева
1008.4 1008.2 +26.4
06 17.09 Ю 1 6000 м 5/3 540 м
[Cu med, cong]
+34.1 +27.0 67 +52 +67 опасность
перегрева
1008.0 1007.9
09 17.09 Ю 1 7000 м 3/3 540 м
[Sc diur, vesp]
+34.6 +28.0 69 +56 +64 опасность
перегрева
1005.8 1005.9
12 17.09 штиль 0 6000 м 4/4 540 м
[Sc diur, vesp Ci fib]
+31.4 +27.0 78 +49 +49 опасность
перегрева
1006.5 1006.4 +35.1
15 17.09 штиль 0 5000 м ясно +29.0 +28.0 94 +48 +48 опасность
перегрева
1008.1 1008.0
18 17.09 штиль 0 5000 м ясно +28.2 +28.0 99 +47 +47 опасность
перегрева
1008.8 1008.6
00 18.09 штиль 0 5000 м 4/4 540 м
[Sc diur, vesp As trans]
+27.5 +27.5 100 +44 +44 опасность
перегрева
1008.9 1008.7
03 18.09 ЮВ 1 6000 м 4/3 540 м
[Sc diur, vesp Ci fib]
+31.4 +27.0 78 +49 +58 опасность
перегрева
1010.5 1010.3 +26.9
06 18.09 В 1 6000 м 5/5 540 м
[Sc diur, vesp]
+34.0 +27.0 67 +52 +64 опасность
перегрева
1010.4 1010.2
09 18.09 В 1 7000 м 5/5 540 м
[Sc diur, vesp Ci fib]
+33.7 +28.0 72 +54 +60 опасность
перегрева
1008.2 1008.0
12 18.09 штиль 0 5000 м 4/4 540 м
[Sc diur, vesp]
+31.2 +28.0 83 +51 +51 опасность
перегрева
1008.0 1007.9 +34.0
15 18.09 штиль 0 5000 м ясно +29.0 +28.0 94 +48 +48 опасность
перегрева
1010.1 1009.9
18 18.09 штиль 0 5000 м 6/5 540 м
[Sc diur, vesp Ci fib]
+28.0 +28.0 100 +46 +46 опасность
перегрева
1010.8 1010.6
21 18.09 штиль 0 5000 м 4/4 540 м
[Sc diur, vesp]
+27.5 +27.5 100 +44 +44 опасность
перегрева
1010.6 1010.4
00 19.09 штиль 0 5000 м ясно +27.1 +27.1 100 +43 +43 опасность
перегрева
1010.3 1010.1
03 19.09 ЮВ 1 6000 м 3/3 540 м
[Sc]
+30.9 +27.0 80 +49 +57 опасность
перегрева
1011.2 1011.0 +26.8
06 19.09 ЮВ 1 7000 м 4/4 540 м
[Sc diur, vesp]
+33.8 +27.0 68 +52 +66 опасность
перегрева
1010.5 1010.3
09 19.09 В 1 7000 м 3/3 540 м
[Sc diur, vesp]
+34.7 +27.0 64 +52 +61 опасность
перегрева
1007.6 1007.4
12 19.09 штиль 0 5000 м 6/5 540 м
[Sc diur, vesp Ci fib]
+31.8 +28.0 80 +52 +52 опасность
перегрева
1007.2 1007.1 +35.3
15 19.09 штиль 0 5000 м {гроза, дождь} 4/4 540 м
[Sc diur, vesp]
+28.0 +26.0 89 +42 +42 опасность
перегрева
1009.8 1009.6
18 19.09 штиль 0 5000 м {гроза, дождь} 10/6 500 м
[Sc diur, vesp As op]
+28.4 +27.0 92 +45 +45 опасность
перегрева
1010.0 1009.8 0.0
00 20.09 штиль 0 5000 м 6/5 540 м
[Sc diur, vesp As trans]
+26.9 +26.0 95 +40 +40 очень
душно
1009.2 1009.0
03 20.09 штиль 0 6000 м 8/5 540 м
[Sc diur, vesp Ac As]
+30.1 +28.0 89 +50 +54 опасность
перегрева
1010.6 1010.4 +26.5
06 20.09 Ю 1 7000 м 6/5 540 м
[Sc diur, vesp As trans]
+33.8 +27.0 68 +52 +62 опасность
перегрева
1009.4 1009.2
09 20.09 штиль 0 5000 м гроза без осадков 8/6 540 м
[Cb cap Ac As Ci fib]
+27.3 +27.0 98 +43 +46 опасность
перегрева
1006.8 1006.6
12 20.09 штиль 0 5000 м {гроза, дождь} 6/5 540 м
[Sc diur, vesp As trans Ci fib]
+27.8 +27.0 95 +44 +44 опасность
перегрева
1005.9 1005.7 +34.2 12
15 20.09 штиль 0 5000 м 4/4 540 м
[Sc diur, vesp]
+27.5 +27.5 100 +44 +44 опасность
перегрева
1008.3 1008.1
18 20.09 штиль 0 5000 м ясно +27.4 +27.0 98 +43 +43 опасность
перегрева
1008.5 1008.3
00 21.09 штиль 0 5000 м 4/4 540 м
[Sc diur, vesp]
+26.8 +26.8 100 +42 +42 опасность
перегрева
1007.3 1007.1
03 21.09 СВ 1 5000 м 9/6 540 м
[Sc diur, vesp As trans]
+29.1 +28.0 94 +48 +51 опасность
перегрева
1009.4 1009.2 +26.2
06 21.09 ЮЗ 1 5000 м {гроза, дождь} 8/5 540 м
[Sc diur, vesp As trans]
+27.3 +25.0 87 +39 +47 очень
душно
1008.5 1008.4 12
09 21.09 СЗ 1 5000 м 8/5 540 м
[Sc diur, vesp As trans]
+30.7 +27.0 81 +48 +52 опасность
перегрева
1005.4 1005.2
12 21.09 штиль 0 5000 м 9/6 500 м
[Sc diur, vesp As trans]
+29.0 +27.0 89 +46 +46 опасность
перегрева
1006.6 1006.4 +31.0
15 21.09 штиль 0 5000 м 4/4 540 м
[Sc diur, vesp]
+27.8 +27.8 100 +45 +45 опасность
перегрева
1008.5 1008.3
18 21.09 штиль 0 5000 м 3/3 540 м
[Sc diur, vesp]
+27.2 +27.0 99 +43 +43 опасность
перегрева
1009.2 1009.1
00 22.09 штиль 0 4000 м 3/1 750 м
[Cu hum Ac lent]
+26.5 +26.5 100 +40 +40 очень
душно
1009.4 1009.3
03 22.09 штиль 0 5000 м 10/6 540 м
[Sc diur, vesp As trans]
+30.1 +28.0 89 +50 +52 опасность
перегрева
1010.7 1010.5 +25.4
06 22.09 ЮВ 1 6000 м 5/5 540 м
[Sc diur, vesp]
+33.4 +27.0 69 +51 +63 опасность
перегрева
1009.5 1009.3
09 22.09 Ю 1 5000 м гроза без осадков 6/6 540 м
[Cb cap As trans]
+30.7 +29.0 91 +54 +58 опасность
перегрева
1007.2 1007.0
12 22.09 штиль 0 5000 м {гроза} 10/6 500 м
[Sc diur, vesp As op]
+28.4 +26.0 87 +43 +43 опасность
перегрева
1008.4 1008.2 +34.5

 

Местоположение метеостанции Патуакхали (Бангладеш): широта 22.33 долгота 90.33 высота над уровнем моря 3 м.

В архиве по умолчанию представлена погода в Патуакхали за последнюю неделю. Архивные данные за месяц целиком и за предыдущие месяцы, начиная с января 2011 года, Вы можете получить, выбрав интересующий диапазон дат из раскрывающегося списка и нажав кнопку "Ввод!".


*Определитесь, кто Вы:
робот инопланетянин человек

Внимание! Время в таблицах - всемирное. Для получения местного времени необходимо прибавить поправку, которая равна 6.5 ч.

Смотрите также архив погоды в соседних городах и на ближайших метеорологических станциях:

Погода в Кепупаре (Бангладеш) (40 км)
Погода в Барисале (Бангладеш) (47 км)
Погода в Бхоле (Бангладеш) (51 км)
Погода в Хатии (Бангладеш) (80 км)
Погода в Монгле (Бангладеш) (90 км)
Погода в Гопалгандж-Садаре (Бангладеш) (92 км)
Погода в Мадарипуре (Бангладеш) (95 км)
Погода в Кхулне (Бангладеш) (96 км)
Погода в Маиидиcурте (Бангладеш) (99 км)
Погода в Чандпуре (Бангладеш) (111 км)

Пояснения к столбцам:

Ветер - указаны скорость ветра в м/с - средняя за 10 мин, порывы в срок и между сроками (в фигурных скобках) и направление, откуда дует ветер: С - северный, СВ - северо-восточный, В - восточный, ЮВ - юго-восточный, Ю - южный, ЮЗ - юго-западный, З - западный, СЗ - северо-западный.
Видимость - горизонтальная дальность видимости в метрах или километрах. При видимости от 1 до 10 км при отсутствии осадков обычно наблюдается дымка, при ухудшении видимости до 1 км и менее - туман. В сухую погоду видимость может ухудшаться дымом, пылью или мглою.
Явления - указаны атмосферные явления, наблюдавшиеся в срок или в последний час перед сроком; фигурными скобками обозначены явления, наблюдавшиеся между сроками (за 1-3 часа до срока); квадратными скобками обозначены град или гололедные отложения с указанием их диаметра в мм.
Облачность - указаны через наклонную черту общая и нижняя облачность в баллах и высота нижней границы облаков в метрах; квадратными скобками обозначены формы облаков: Ci - перистые, Cs - перисто-слоистые, Cc - перисто-кучевые, Ac - высококучевые, As - высокослоистые, Sc - слоисто-кучевые, Ns - слоисто-дождевые, Cu - кучевые, Cb - кучево-дождевые. Подробнее классификацию облаков см. в Атласе облаков (PDF).
T - Температура воздуха - температура, измеренная на высоте 2 м над землей.
Td - Температура точки росы - температура, при понижении до которой содержащийся в воздухе водяной пар достигнет насыщения.
f - Относительная влажность воздуха - влажноcть воздуха, измеренная на высоте 2 м над землей.
Te - Эффективная температура - температура, которую ощущает одетый по сезону человек в тени. Характеристика душности погоды. При расчете учитывается влияние влажности воздуха и скорости ветра на теплоощущения человека.
Tes - Эффективная температура на солнце - температура, которую ощущает человек, с поправкой на солнечный нагрев. Характеристика знойности погоды. Зависит от высоты солнца над горизонтом, облачности и скорости ветра. Ночью, в пасмурную погоду, а также при ветре 12 м/с и более поправка равна нулю.
P - Атмосферное давление - приведенное к уровню моря атмосферное давление.
Po - Атмосферное давление - измеренное на уровне метеостанции атмосферное давление.
Tmin - Минимальная температура - минимум температуры воздуха на высоте 2 м над землей.
Tmax - Максимальная температура - максимум температуры воздуха на высоте 2 м над землей.
R - Количество осадков - Количество выпавших осадков за период времени, мм. При наведении курсора мыши на число - период времени, за который выпало указанное количество осадков.
R24 - Количество осадков - Количество выпавших осадков за 24 часа, мм.
S - Снежный покров - Высота снежного покрова, см. При наведении курсора мыши на число - состояние снежного покрова и степень покрытия местности в баллах.